Nyk Orpheus — 7JDN — position and weather

sailwx.info

Track history (hours):
 
Tides and Currents Weather Stations Pressure Air Temp Water Temp Dewpoint Dewpoint Depression Visibility Wind Speed Wind Dir Waves Ship Positions

Nyk Orpheus

Last reported at 2014-Sep-01 11:28 UTC. Time now 2014-Sep-01 11:38 UTC.
Position N 22°21' E 114°03'.

Length 336 m; draft 10.9 m.

Type: Other ship. MMSI: 432657000.

Date/timePositionNaut miles runAvg speedWind from/ knotsBaromVisibWave heightAir tempDewpointWater temp
2014-Sep-01 11:28N 22°21' E 114°03'910.5
2014-Sep-01 10:33N 22°24' E 113°53'2 2.3
2014-Sep-01 09:32N 22°27' E 113°53'0 0.0
2014-Sep-01 08:23N 22°27' E 113°53'0 0.0
2014-Sep-01 07:29N 22°27' E 113°53'0 0.0
2014-Sep-01 06:32N 22°27' E 113°53'0 0.0
2014-Sep-01 05:29N 22°27' E 113°53'0 0.0
2014-Sep-01 04:29N 22°27' E 113°53'0 0.0
2014-Sep-01 03:32N 22°27' E 113°53'0 0.0
2014-Sep-01 02:29N 22°27' E 113°53'0 0.0
2014-Sep-01 01:26N 22°27' E 113°53'0 0.0
2014-Sep-01 00:32N 22°27' E 113°53'0 0.0
2014-Aug-31 23:32N 22°27' E 113°53'0 0.0
2014-Aug-31 22:32N 22°27' E 113°53'0 0.0
2014-Aug-31 21:29N 22°27' E 113°53'0 0.0
2014-Aug-31 20:32N 22°27' E 113°53'0 0.0
2014-Aug-31 19:32N 22°27' E 113°53'0 0.0
2014-Aug-31 18:32N 22°27' E 113°53'0 0.0
2014-Aug-31 17:29N 22°27' E 113°53'0 0.0
2014-Aug-31 16:32N 22°27' E 113°53'0 0.0
2014-Aug-31 15:32N 22°27' E 113°53'0 0.0
2014-Aug-31 14:32N 22°27' E 113°53'0 0.0
2014-Aug-31 13:32N 22°27' E 113°53'0 0.0
2014-Aug-31 12:32N 22°27' E 113°53'1 0.5
2014-Aug-31 11:33N 22°26' E 113°53'17 8.4
2014-Aug-31 09:29N 22°15' E 114°08'8 8.1
2014-Aug-31 08:29N 22°09' E 114°14'  
2014-Aug-26 07:30N 01°15' E 104°07'1313.7
2014-Aug-26 06:33N 01°13' E 103°55'5 4.6
2014-Aug-26 05:31N 01°16' E 103°51'0 0.0
2014-Aug-26 04:31N 01°16' E 103°51'0 0.0
2014-Aug-26 03:31N 01°16' E 103°51'0 0.0
2014-Aug-26 02:31N 01°16' E 103°51'0 0.0
2014-Aug-26 01:31N 01°16' E 103°51'0 0.0
2014-Aug-26 00:31N 01°16' E 103°51'0 0.0
2014-Aug-25 23:31N 01°16' E 103°51'0 0.0
2014-Aug-25 22:31N 01°16' E 103°51'0 0.0
2014-Aug-25 21:28N 01°16' E 103°51'0 0.0
2014-Aug-25 20:31N 01°16' E 103°51'0 0.0
2014-Aug-25 19:31N 01°16' E 103°51'0 0.0
2014-Aug-25 18:31N 01°16' E 103°51'0 0.0
2014-Aug-25 17:25N 01°16' E 103°51'0 0.0
2014-Aug-25 16:31N 01°16' E 103°51'0 0.0
2014-Aug-25 15:31N 01°16' E 103°51'0 0.0
2014-Aug-25 14:28N 01°16' E 103°51'0 0.0
2014-Aug-25 13:31N 01°16' E 103°51'0 0.0
2014-Aug-25 12:31N 01°16' E 103°51'0 0.0
2014-Aug-25 11:28N 01°16' E 103°51'0 0.0
2014-Aug-25 10:31N 01°16' E 103°51'0 0.0
2014-Aug-25 09:31N 01°16' E 103°51'0 0.0
2014-Aug-25 08:31N 01°16' E 103°51'0 0.0
2014-Aug-25 07:25N 01°16' E 103°51'0 0.0
2014-Aug-25 06:31N 01°16' E 103°51'0 0.0
2014-Aug-25 05:28N 01°16' E 103°51'0 0.0
2014-Aug-25 04:31N 01°16' E 103°51'0 0.2
2014-Aug-25 03:33N 01°16' E 103°51'0 0.1
2014-Aug-25 02:32N 01°16' E 103°51'0 0.0
2014-Aug-25 01:32N 01°16' E 103°51'0 0.0
2014-Aug-25 00:32N 01°16' E 103°51'0 0.0
2014-Aug-24 23:29N 01°16' E 103°51'0 0.0
2014-Aug-24 22:32N 01°16' E 103°51'0 0.0
2014-Aug-24 21:29N 01°16' E 103°51'0 0.0
2014-Aug-24 20:26N 01°16' E 103°51'0 0.0
2014-Aug-24 19:32N 01°16' E 103°51'0 0.0
2014-Aug-24 18:29N 01°16' E 103°51'0 0.0
2014-Aug-24 17:32N 01°16' E 103°51'0 0.1
2014-Aug-24 16:33N 01°16' E 103°51'2 2.3
2014-Aug-24 15:33N 01°14' E 103°53'0 0.0
2014-Aug-24 14:32N 01°14' E 103°53'0 0.0
2014-Aug-24 13:26N 01°14' E 103°53'0 0.0
2014-Aug-24 12:29N 01°14' E 103°53'0 0.0
2014-Aug-24 11:31N 01°14' E 103°53'0 0.0
2014-Aug-24 10:31N 01°14' E 103°53'0 0.0
2014-Aug-24 09:31N 01°14' E 103°53'0 0.1
2014-Aug-24 08:32N 01°14' E 103°53'0 0.1
2014-Aug-24 07:23N 01°14' E 103°53'0 0.3
2014-Aug-24 06:33N 01°14' E 103°53'4 3.6
2014-Aug-24 05:33N 01°11' E 103°51'10 9.0
2014-Aug-24 04:26N 01°05' E 103°43'  
Track history (hours):
 
Tides and Currents Weather Stations Pressure Air Temp Water Temp Dewpoint Dewpoint Depression Visibility Wind Speed Wind Dir Waves Ship Positions

Nyk Orpheus

Last reported at 2014-Sep-01 11:28 UTC. Time now 2014-Sep-01 11:38 UTC.
Position N 22°21' E 114°03'.

Length 336 m; draft 10.9 m.

Type: Other ship. MMSI: 432657000.

Date/timePositionNaut miles runAvg speedWind from/ knotsBaromVisibWave heightAir tempDewpointWater temp
2014-Sep-01 11:28N 22°21' E 114°03'910.5
2014-Sep-01 10:33N 22°24' E 113°53'2 2.3
2014-Sep-01 09:32N 22°27' E 113°53'0 0.0
2014-Sep-01 08:23N 22°27' E 113°53'0 0.0
2014-Sep-01 07:29N 22°27' E 113°53'0 0.0
2014-Sep-01 06:32N 22°27' E 113°53'0 0.0
2014-Sep-01 05:29N 22°27' E 113°53'0 0.0
2014-Sep-01 04:29N 22°27' E 113°53'0 0.0
2014-Sep-01 03:32N 22°27' E 113°53'0 0.0
2014-Sep-01 02:29N 22°27' E 113°53'0 0.0
2014-Sep-01 01:26N 22°27' E 113°53'0 0.0
2014-Sep-01 00:32N 22°27' E 113°53'0 0.0
2014-Aug-31 23:32N 22°27' E 113°53'0 0.0
2014-Aug-31 22:32N 22°27' E 113°53'0 0.0
2014-Aug-31 21:29N 22°27' E 113°53'0 0.0
2014-Aug-31 20:32N 22°27' E 113°53'0 0.0
2014-Aug-31 19:32N 22°27' E 113°53'0 0.0
2014-Aug-31 18:32N 22°27' E 113°53'0 0.0
2014-Aug-31 17:29N 22°27' E 113°53'0 0.0
2014-Aug-31 16:32N 22°27' E 113°53'0 0.0
2014-Aug-31 15:32N 22°27' E 113°53'0 0.0
2014-Aug-31 14:32N 22°27' E 113°53'0 0.0
2014-Aug-31 13:32N 22°27' E 113°53'0 0.0
2014-Aug-31 12:32N 22°27' E 113°53'1 0.5
2014-Aug-31 11:33N 22°26' E 113°53'17 8.4
2014-Aug-31 09:29N 22°15' E 114°08'8 8.1
2014-Aug-31 08:29N 22°09' E 114°14'  
2014-Aug-26 07:30N 01°15' E 104°07'1313.7
2014-Aug-26 06:33N 01°13' E 103°55'5 4.6
2014-Aug-26 05:31N 01°16' E 103°51'0 0.0
2014-Aug-26 04:31N 01°16' E 103°51'0 0.0
2014-Aug-26 03:31N 01°16' E 103°51'0 0.0
2014-Aug-26 02:31N 01°16' E 103°51'0 0.0
2014-Aug-26 01:31N 01°16' E 103°51'0 0.0
2014-Aug-26 00:31N 01°16' E 103°51'0 0.0
2014-Aug-25 23:31N 01°16' E 103°51'0 0.0
2014-Aug-25 22:31N 01°16' E 103°51'0 0.0
2014-Aug-25 21:28N 01°16' E 103°51'0 0.0
2014-Aug-25 20:31N 01°16' E 103°51'0 0.0
2014-Aug-25 19:31N 01°16' E 103°51'0 0.0
2014-Aug-25 18:31N 01°16' E 103°51'0 0.0
2014-Aug-25 17:25N 01°16' E 103°51'0 0.0
2014-Aug-25 16:31N 01°16' E 103°51'0 0.0
2014-Aug-25 15:31N 01°16' E 103°51'0 0.0
2014-Aug-25 14:28N 01°16' E 103°51'0 0.0
2014-Aug-25 13:31N 01°16' E 103°51'0 0.0
2014-Aug-25 12:31N 01°16' E 103°51'0 0.0
2014-Aug-25 11:28N 01°16' E 103°51'0 0.0
2014-Aug-25 10:31N 01°16' E 103°51'0 0.0
2014-Aug-25 09:31N 01°16' E 103°51'0 0.0
2014-Aug-25 08:31N 01°16' E 103°51'0 0.0
2014-Aug-25 07:25N 01°16' E 103°51'0 0.0
2014-Aug-25 06:31N 01°16' E 103°51'0 0.0
2014-Aug-25 05:28N 01°16' E 103°51'0 0.0
2014-Aug-25 04:31N 01°16' E 103°51'0 0.2
2014-Aug-25 03:33N 01°16' E 103°51'0 0.1
2014-Aug-25 02:32N 01°16' E 103°51'0 0.0
2014-Aug-25 01:32N 01°16' E 103°51'0 0.0
2014-Aug-25 00:32N 01°16' E 103°51'0 0.0
2014-Aug-24 23:29N 01°16' E 103°51'0 0.0
2014-Aug-24 22:32N 01°16' E 103°51'0 0.0
2014-Aug-24 21:29N 01°16' E 103°51'0 0.0
2014-Aug-24 20:26N 01°16' E 103°51'0 0.0
2014-Aug-24 19:32N 01°16' E 103°51'0 0.0
2014-Aug-24 18:29N 01°16' E 103°51'0 0.0
2014-Aug-24 17:32N 01°16' E 103°51'0 0.1
2014-Aug-24 16:33N 01°16' E 103°51'2 2.3
2014-Aug-24 15:33N 01°14' E 103°53'0 0.0
2014-Aug-24 14:32N 01°14' E 103°53'0 0.0
2014-Aug-24 13:26N 01°14' E 103°53'0 0.0
2014-Aug-24 12:29N 01°14' E 103°53'0 0.0
2014-Aug-24 11:31N 01°14' E 103°53'0 0.0
2014-Aug-24 10:31N 01°14' E 103°53'0 0.0
2014-Aug-24 09:31N 01°14' E 103°53'0 0.1
2014-Aug-24 08:32N 01°14' E 103°53'0 0.1
2014-Aug-24 07:23N 01°14' E 103°53'0 0.3
2014-Aug-24 06:33N 01°14' E 103°53'4 3.6
2014-Aug-24 05:33N 01°11' E 103°51'10 9.0
2014-Aug-24 04:26N 01°05' E 103°43'  

Dump ship's entire track history